This is the latest recevied weather packets stored in our database for station/object IW2OBX-10. If no packets are shown the sender has not sent any weather packets the latest 10 day(s).
| Time | Temp. | Humidity | Pressure | Rain* | Wind** | Luminosity | Snow |
|---|---|---|---|---|---|---|---|
| 1778303556 | 17.78° C | 66% | 1018 hPa | - | - | - | - |
| 1778302655 | 15° C | 72% | 1018 hPa | - | - | - | - |
| 1778301755 | 15° C | 72% | 1017.8 hPa | - | - | - | - |
| 1778300854 | 15° C | 72% | 1017.6 hPa | - | - | - | - |
| 1778299957 | 15° C | 71% | 1017.6 hPa | - | - | - | - |
| 1778299056 | 14.44° C | 73% | 1017.6 hPa | - | - | - | - |
| 1778298155 | 15° C | 71% | 1017.8 hPa | - | - | - | - |
| 1778297255 | 15° C | 72% | 1017.5 hPa | - | - | - | - |
| 1778296354 | 15° C | 72% | 1017.3 hPa | - | - | - | - |
| 1778295453 | 15° C | 73% | 1017.5 hPa | - | - | - | - |
| 1778294528 | 15° C | 71% | 1017.5 hPa | - | - | - | - |
| 1778293628 | 15° C | 71% | 1017.8 hPa | - | - | - | - |
| 1778292727 | 15° C | 71% | 1017.9 hPa | - | - | - | - |
| 1778291826 | 15° C | 72% | 1017.8 hPa | - | - | - | - |
| 1778290925 | 15.56° C | 71% | 1017.8 hPa | - | - | - | - |
| 1778290024 | 15° C | 72% | 1017.6 hPa | - | - | - | - |
| 1778288223 | 15.56° C | 71% | 1017.6 hPa | - | - | - | - |
| 1778287322 | 15.56° C | 72% | 1017.5 hPa | - | - | - | - |
| 1778286397 | 15.56° C | 72% | 1017.5 hPa | - | - | - | - |
| 1778285496 | 15.56° C | 72% | 1017.5 hPa | - | - | - | - |
| 1778284596 | 15.56° C | 71% | 1017.5 hPa | - | - | - | - |
| 1778283695 | 16.11° C | 70% | 1017.6 hPa | - | - | - | - |
| 1778281893 | 16.11° C | 69% | 1017.3 hPa | - | - | - | - |
| 1778277365 | 16.11° C | 66% | 1017.4 hPa | - | - | - | - |
| 1778276464 | 16.11° C | 65% | 1017.3 hPa | - | - | - | - |
* Rain since midnight (hover to see other rain measurements)
** Current wind speed in m/s (hover to see current wind gust speed)